GFSFLT2_prec_cthk_159.txt.gz
RH
37 40 43 47 43 38 33 30 29 27 25 24 25 25 25 25 27 29 30 27 23 24 24 23 23 23 24 27 30 33 36 49
37 39 44 48 48 46 41 35 33 31 30 28 28 27 27 28 29 30 32 31 27 26 27 26 26 27 27 28 30 33 37 43
41 43 46 46 50 51 48 44 41 36 34 34 34 32 29 29 30 32 33 34 33 28 28 28 29 28 28 30 29 31 37 40
38 43 47 49 51 50 54 53 48 47 47 42 37 38 38 35 33 34 35 36 36 33 30 30 31 30 30 30 31 32 35 39
36 42 44 52 57 57 58 58 60 56 55 57 50 39 41 42 40 38 37 38 39 39 35 33 33 33 33 33 34 36 36 38
36 38 42 46 49 52 61 65 65 70 72 71 65 58 45 44 46 46 43 40 40 42 42 39 37 37 37 37 38 39 40 42
31 32 35 39 44 45 49 56 72 75 77 82 83 72 64 56 49 51 52 49 44 45 46 45 42 40 40 40 40 41 43 46
26 27 27 28 30 34 36 44 51 66 75 76 81 88 76 68 64 58 58 59 53 47 47 50 50 46 45 44 42 43 46 48
24 23 21 21 22 23 25 29 34 44 50 60 74 80 86 86 73 67 60 58 62 63 58 53 52 53 48 47 46 47 48 47
23 21 17 15 14 14 15 18 22 26 32 43 48 58 73 83 89 77 78 70 63 65 64 64 56 54 52 52 50 49 49 49
21 19 16 15 14 13 12 12 12 13 19 24 32 41 48 59 77 89 87 85 76 74 72 67 63 61 54 56 56 53 51 51
19 18 17 16 16 15 14 13 12 11 12 13 16 24 31 40 52 75 91 88 85 80 81 80 67 64 66 66 65 61 57 53
22 20 19 18 17 16 15 14 13 11 11 10 13 15 18 26 33 49 72 86 92 87 87 86 79 75 76 74 72 76 76 65
22 21 19 18 18 17 15 14 14 13 12 11 11 12 14 17 22 28 47 67 78 80 87 93 87 84 83 84 83 79 81 82
24 22 20 19 18 17 15 13 12 11 10 11 11 11 12 14 16 19 25 38 57 69 70 80 91 92 88 88 92 87 85 83
27 25 22 20 21 19 17 16 14 13 12 12 12 13 13 13 14 16 18 24 31 47 57 62 72 84 95 93 93 92 90 91
31 28 26 24 23 22 20 19 18 15 15 15 15 15 15 16 17 16 19 22 24 28 35 46 58 76 86 98 91 92 96 95
30 29 29 28 28 27 26 23 20 18 18 18 18 19 19 19 21 21 21 23 26 27 28 36 46 67 88 90 95 99 97 95
35 33 32 31 31 31 26 21 21 24 25 25 24 24 25 26 27 28 27 28 30 29 29 29 37 49 69 80 83 99 97 83
36 34 34 34 29 24 22 23 23 24 26 27 30 31 34 37 37 37 37 38 35 34 33 30 30 37 46 67 77 72 94 93

GFSFLT2_prec_cthk_162.txt.gz
RH
36 38 42 47 50 48 44 41 39 37 35 33 34 35 33 30 29 29 30 31 30 27 27 27 26 27 28 30 31 32 35 45
39 42 43 45 48 52 53 48 46 43 41 39 38 39 42 38 34 32 33 34 34 32 29 30 29 29 30 31 32 33 34 42
42 44 43 44 48 50 51 52 52 49 47 46 47 44 43 44 43 39 39 39 39 38 34 32 31 31 31 33 34 34 34 38
40 42 43 44 49 53 52 54 56 57 54 52 50 52 51 52 51 45 43 43 42 42 41 37 35 33 33 34 36 36 36 40
36 38 39 41 43 44 48 55 61 65 66 65 58 57 57 57 56 55 51 47 47 46 45 45 40 37 36 36 38 39 40 42
32 32 33 34 37 39 43 46 48 52 67 71 74 75 69 63 63 61 63 59 52 50 52 50 48 45 40 38 40 40 42 44
27 27 27 26 25 25 27 30 36 43 51 60 71 75 78 84 83 69 61 62 61 57 58 58 53 50 47 41 41 42 43 45
27 25 23 21 19 18 18 19 21 24 29 37 49 57 67 78 82 88 78 62 62 62 61 60 62 58 56 50 45 44 45 47
27 25 23 22 19 17 16 15 15 15 15 15 20 32 43 53 67 76 87 84 71 65 66 67 64 62 60 58 54 50 47 47
23 22 22 21 19 18 17 16 15 14 14 14 14 13 15 27 39 50 68 77 84 82 74 66 70 71 67 65 61 58 53 50
20 20 19 19 18 18 17 16 15 15 15 14 13 12 13 13 14 25 38 50 71 86 88 84 76 70 71 71 72 66 57 56
23 22 21 20 19 18 17 17 17 17 16 15 13 12 11 11 13 13 16 28 41 63 84 91 91 83 77 74 73 69 67 60
24 24 23 22 20 18 18 18 18 17 17 15 14 13 12 10 10 11 13 14 18 31 52 76 92 85 87 75 77 70 67 69
26 26 24 23 22 21 19 18 17 17 16 15 14 13 12 11 10 11 12 13 15 17 26 44 63 94 95 89 83 81 83 79
28 26 25 24 23 22 21 20 20 19 18 17 16 15 13 13 12 11 12 14 14 17 18 23 40 58 78 94 97 98 88 78
31 29 29 28 27 26 26 24 23 22 22 20 18 17 16 16 15 15 15 15 16 18 22 22 24 34 48 78 88 90 88 95
32 30 30 29 29 27 25 25 24 22 22 22 22 21 21 21 21 20 20 20 20 21 24 24 26 27 29 39 68 78 79 89
34 31 29 27 26 25 24 23 23 23 23 22 22 22 23 24 25 24 24 24 26 27 27 27 26 27 28 29 34 49 63 68
34 31 29 28 28 27 26 24 23 21 20 20 21 23 25 28 31 31 32 33 32 34 36 34 33 31 28 28 29 31 41 55
37 34 32 29 26 26 23 20 20 20 19 20 22 25 32 37 41 44 45 46 47 46 42 41 39 38 34 30 31 29 33 48

GFSFLT2_prec_cthk_165.txt.gz
RH
43 43 45 47 48 49 51 55 51 44 40 40 40 41 39 40 39 40 40 37 37 35 32 29 29 28 30 30 31 32 35 38
41 44 44 45 47 48 48 50 52 52 48 44 41 41 44 43 44 43 44 45 43 43 39 34 32 31 31 32 32 32 34 36
41 42 43 45 46 51 52 52 53 54 54 52 48 46 47 46 54 49 49 49 50 47 44 42 37 34 34 33 33 34 35 35
38 39 40 42 41 43 42 50 55 56 58 59 59 56 53 52 51 52 53 54 57 56 51 46 45 39 36 36 35 35 36 37
31 30 30 31 31 31 34 38 42 46 48 54 65 65 66 67 62 57 57 59 60 63 58 56 53 50 45 39 38 38 37 38
26 25 24 23 23 23 22 23 26 32 37 42 48 54 62 69 72 76 68 62 62 62 60 56 60 59 56 52 44 40 39 38
26 24 23 21 21 20 19 18 18 17 18 20 24 30 38 46 55 67 76 81 78 72 68 62 54 59 58 57 59 48 43 41
27 26 24 23 22 21 20 20 19 19 17 17 16 15 16 18 25 36 50 67 74 83 75 70 61 57 57 55 61 60 52 45
28 26 21 19 19 18 19 19 18 18 18 18 18 17 17 16 16 16 19 30 49 71 79 82 72 64 65 60 59 62 60 53
29 26 22 21 20 19 18 17 17 16 16 16 16 15 15 15 14 13 13 13 16 32 53 72 79 82 70 65 61 61 59 61
28 27 25 24 23 22 21 20 20 19 18 17 16 16 16 16 15 14 13 13 12 13 18 38 61 71 77 74 67 66 64 68
26 26 25 24 24 23 22 21 21 21 20 19 17 16 16 15 14 13 12 11 11 12 13 14 24 45 65 71 75 74 67 70
24 23 24 24 24 24 24 24 23 22 21 20 19 18 16 14 13 12 12 12 11 10 11 12 13 17 30 52 64 96 94 76
26 26 26 25 24 23 23 24 23 22 22 21 20 20 19 18 17 17 16 15 13 13 12 11 14 16 24 30 38 58 80 96
28 27 27 27 26 26 24 23 23 22 22 21 20 19 19 19 19 19 19 19 18 16 16 16 20 20 23 28 33 42 67 80
31 31 29 28 27 25 23 22 20 19 18 18 18 19 19 19 19 20 20 21 21 21 21 22 25 24 23 25 28 33 42 60
34 33 32 30 26 23 21 20 20 20 20 20 18 17 17 18 19 20 22 24 26 28 29 29 30 30 31 29 28 29 30 38
36 34 32 29 26 24 23 23 22 20 18 17 17 17 17 16 17 20 23 26 30 34 36 37 38 39 36 35 33 33 35 36
37 35 33 30 29 28 25 22 21 17 15 16 16 16 17 19 20 23 27 32 40 45 44 44 43 42 42 39 38 39 36 36
39 36 32 31 30 26 24 23 19 15 14 15 17 19 20 21 25 31 33 40 54 56 55 54 50 48 45 47 43 43 46 39

GFSFLT2_prec_cthk_168.txt.gz
RH
42 42 43 43 45 47 49 49 49 49 52 52 46 41 40 40 43 42 42 42 43 46 47 42 33 33 32 31 31 32 33 41
45 46 47 45 44 46 47 49 49 51 51 53 53 50 46 44 45 53 52 51 47 45 49 52 47 36 35 34 33 32 34 41
41 40 41 41 40 41 42 42 48 52 55 56 57 58 57 51 49 50 56 53 51 53 51 54 56 51 40 37 37 36 40 43
34 34 35 34 32 31 32 34 38 42 45 46 48 55 60 64 64 59 57 55 54 54 55 54 54 59 61 51 44 45 47 44
27 26 25 24 22 21 20 20 22 25 29 34 39 42 45 49 59 66 72 72 71 66 64 72 73 64 65 64 61 53 53 51
28 27 25 23 22 22 21 20 20 19 19 18 18 19 23 28 32 37 46 55 64 77 76 69 73 73 68 67 65 61 58 57
26 26 26 25 23 21 19 19 20 21 21 20 19 18 17 17 17 18 20 24 34 53 69 79 82 74 75 67 67 69 61 61
26 27 27 27 24 21 19 19 18 17 17 17 17 18 18 18 17 17 17 17 17 19 28 51 72 84 82 75 63 68 68 64
29 30 30 29 27 24 21 20 20 19 18 18 17 16 15 15 15 15 15 15 15 15 16 17 26 53 76 85 76 66 68 70
30 29 28 26 26 26 24 22 21 20 19 18 17 17 17 17 16 15 14 14 14 14 15 14 15 17 34 61 75 80 69 74
28 27 26 24 23 23 22 21 20 19 19 19 18 18 17 16 16 15 15 14 14 13 13 14 14 13 16 21 44 58 75 77
28 26 25 24 23 22 21 21 21 21 20 19 18 17 16 15 15 14 15 15 16 14 13 11 13 16 16 13 14 24 47 63
26 25 24 23 23 23 23 23 23 22 21 20 19 19 18 18 18 18 17 17 17 17 17 16 16 18 15 14 11 10 13 27
26 25 25 25 25 26 26 25 24 23 22 20 19 18 17 17 17 17 17 16 16 16 16 17 21 24 24 23 20 17 16 25
28 27 27 28 28 29 27 27 27 23 20 19 17 16 16 16 17 16 16 15 15 16 17 20 21 23 26 30 32 27 24 19
31 31 32 32 32 29 26 25 23 21 20 18 16 16 17 16 16 15 15 15 16 18 20 23 27 28 29 33 36 36 37 30
36 36 35 33 30 27 25 23 23 24 25 23 23 21 19 18 17 16 15 16 19 23 25 29 32 35 37 39 39 38 38 39
38 37 35 32 29 26 25 24 23 25 24 24 22 21 20 20 17 17 18 16 19 24 30 34 39 43 43 43 43 43 41 41
40 38 36 32 30 28 25 23 24 26 25 25 23 21 19 19 19 17 18 20 23 31 34 38 47 52 53 53 51 49 47 45
40 38 37 34 31 29 26 24 25 25 25 26 22 20 19 20 20 19 21 24 30 35 36 40 51 60 62 62 61 60 58 54

GFSFLT2_prec_cthk_174.txt.gz
RH
40 39 38 39 39 39 40 40 40 44 46 49 51 52 52 53 53 55 53 48 49 50 49 49 47 43 41 40 40 40 42 40
40 38 38 36 35 34 33 33 33 35 40 44 46 46 49 52 56 56 57 55 53 52 54 57 55 53 50 47 44 43 45 44
36 34 33 31 29 25 23 23 21 22 25 27 31 32 32 36 39 45 49 54 56 57 59 59 59 59 52 51 54 55 52 48
31 30 28 24 23 21 20 19 19 18 18 18 17 17 18 18 21 23 25 27 31 36 42 47 53 60 63 63 61 64 79 78
25 23 22 22 22 22 21 21 21 21 20 19 16 16 16 15 15 15 17 18 19 16 17 20 25 36 50 62 63 58 77 78
24 23 22 21 21 22 23 24 25 24 22 21 20 19 18 17 15 15 16 15 14 14 14 15 17 19 24 31 49 55 58 65
25 23 23 22 22 23 25 26 24 22 20 19 18 17 15 15 14 15 16 15 15 14 14 14 14 15 16 18 19 29 41 53
25 24 23 23 24 25 25 23 20 19 18 17 16 16 16 15 15 15 16 15 14 15 15 14 13 14 14 14 14 16 18 35
24 23 23 24 25 25 23 21 20 19 18 17 17 16 16 16 16 18 17 17 17 18 18 16 15 13 13 12 13 13 14 12
25 24 25 25 25 24 23 21 20 20 19 18 17 17 17 17 18 19 18 18 19 19 17 14 13 13 13 14 15 13 12 11
25 25 25 25 24 25 25 23 22 22 21 20 19 19 19 19 19 18 17 16 18 17 16 16 14 13 13 13 12 11 11 12
26 25 25 26 26 28 27 24 24 24 23 22 22 21 19 18 19 19 17 16 16 16 15 15 16 17 12 11 9 9 12 16
27 26 27 29 29 27 25 24 26 27 27 25 23 20 19 18 16 16 15 14 16 16 15 14 13 14 12 11 9 12 12 12
28 28 29 29 28 26 26 27 30 30 27 27 25 24 21 19 17 17 18 19 18 15 14 14 14 16 20 18 17 14 16 13
31 29 29 28 29 29 30 32 31 28 27 27 23 23 20 20 19 19 18 21 20 19 19 20 20 20 21 25 29 28 21 16
33 33 31 29 30 32 32 30 29 27 27 24 20 22 20 21 21 21 21 21 20 20 20 20 20 21 21 23 29 32 33 24
33 34 33 33 34 33 32 30 28 27 24 20 23 20 22 21 20 22 21 20 22 18 20 21 21 21 22 22 23 27 30 34
36 37 37 36 36 36 34 31 29 28 26 24 23 23 24 24 24 23 22 24 24 23 21 21 22 22 23 25 27 27 28 30
41 41 42 41 41 39 34 32 32 31 28 26 24 26 26 25 25 24 22 26 25 23 23 23 23 24 26 27 27 29 29 30
45 45 45 46 43 38 36 36 35 33 29 27 28 27 26 27 28 27 25 26 25 24 25 25 26 27 27 28 29 30 30 30

GFSFLT2_prec_cthk_177.txt.gz
RH
35 35 35 36 36 35 32 31 31 33 35 37 39 40 40 43 44 46 48 50 50 49 48 47 47 48 48 49 50 48 47 46
38 34 33 32 31 28 24 22 23 26 29 31 31 32 34 35 35 37 41 44 46 48 49 48 48 48 47 49 51 48 48 50
34 32 28 26 24 21 21 20 20 20 20 20 19 18 17 16 18 21 22 22 24 26 32 37 42 45 50 55 55 52 52 55
32 29 25 22 21 19 19 19 19 20 21 21 19 18 17 16 15 16 15 16 17 17 15 15 18 21 27 36 48 54 57 61
29 26 22 20 19 19 20 20 21 22 21 19 17 16 16 15 14 14 13 13 13 12 12 12 12 13 15 17 26 34 48 56
26 23 22 21 20 19 19 20 22 22 20 18 17 16 15 14 14 13 13 13 13 13 13 13 13 12 13 13 14 14 21 34
24 22 21 20 19 19 20 22 23 22 19 17 16 16 15 14 14 14 14 14 14 14 15 15 15 14 14 13 13 13 12 13
24 22 21 20 20 20 21 23 23 20 19 17 17 16 15 15 15 15 15 15 15 15 15 14 13 13 12 12 13 13 13 13
24 21 21 21 21 22 23 24 22 21 20 19 18 17 17 17 17 16 16 16 16 15 14 13 12 12 11 11 11 11 11 12
24 22 22 22 22 23 24 24 24 22 21 20 20 19 18 17 17 17 17 15 14 13 12 11 11 11 10 10 10 10 10 10
25 23 23 23 24 24 26 26 24 22 21 21 21 20 19 19 18 17 15 13 12 11 11 11 11 10 10 9 9 8 9 11
25 24 25 25 25 27 28 27 24 23 23 23 22 21 20 19 17 15 13 12 12 12 11 10 10 9 8 8 7 7 8 9
25 25 26 27 28 27 28 26 25 26 25 23 22 22 20 18 16 14 14 14 13 11 11 9 8 8 8 7 6 7 9 11
26 26 27 29 29 29 28 26 27 28 26 24 24 23 22 20 17 17 16 15 13 12 11 10 11 13 17 13 14 11 11 9
29 29 28 29 30 30 28 30 31 30 27 26 26 25 25 22 21 18 17 16 15 14 12 15 19 19 19 22 24 24 18 13
32 30 30 30 30 30 30 31 32 30 30 30 28 27 24 23 21 19 18 17 15 14 15 18 21 21 22 23 25 26 28 20
34 34 33 31 31 33 34 35 35 34 32 30 27 26 26 24 22 21 20 18 20 21 23 24 25 25 25 24 23 24 24 27
38 35 33 35 36 37 38 39 38 34 32 30 29 28 27 25 23 22 20 19 22 24 26 25 26 25 26 26 27 30 32 30
36 36 39 39 41 42 43 42 40 36 34 34 33 31 29 26 24 22 22 21 24 24 26 26 25 25 26 26 27 28 29 34
40 42 45 44 46 47 47 46 43 38 37 37 37 34 30 28 25 24 23 23 24 24 24 25 25 26 26 27 28 29 30 33

GFSFLT2_prec_cthk_183.txt.gz
RH
35 36 35 36 34 33 31 30 29 30 31 33 34 33 31 31 31 28 26 26 27 28 29 31 33 33 34 36 37 38 40 42
36 35 35 35 32 30 26 25 25 26 28 27 26 24 23 21 18 16 15 15 14 13 14 14 14 17 19 20 23 27 31 39
38 36 35 34 30 26 23 22 22 22 21 20 20 19 17 15 14 14 14 14 13 13 12 11 11 12 12 12 13 14 18 22
38 36 35 32 27 23 21 20 19 20 20 20 19 17 16 14 14 14 13 13 13 13 13 12 12 12 13 13 13 13 13 13
38 36 35 31 24 21 20 20 20 19 19 20 20 18 16 15 15 15 15 14 14 14 14 14 14 14 15 14 14 13 13 12
37 36 34 30 24 20 19 20 19 19 20 21 21 19 17 17 16 16 15 15 15 15 15 15 15 15 14 13 12 11 11 11
37 35 33 29 25 22 19 20 20 20 20 22 21 20 19 18 17 17 16 16 16 16 16 15 14 14 13 12 11 10 10 10
36 34 31 28 26 25 22 21 21 21 22 23 22 21 20 19 18 17 17 17 17 17 16 15 14 13 11 10 10 10 9 9
35 33 30 28 26 27 26 24 23 22 22 23 23 23 21 20 19 18 18 18 18 18 17 14 13 11 10 10 9 9 8 8
32 32 30 29 27 27 28 25 24 23 22 23 24 24 22 20 19 19 19 20 19 18 16 14 13 12 11 10 10 9 8 9
32 31 30 30 29 29 30 27 25 24 23 24 25 24 22 21 21 21 21 20 20 18 16 14 14 13 12 11 10 9 9 9
34 33 33 32 30 30 32 29 28 26 26 26 25 25 23 22 23 22 22 22 21 18 16 15 15 14 13 12 11 10 10 13
36 33 32 32 31 33 33 31 29 29 28 27 27 27 25 25 25 24 24 23 21 19 19 18 16 15 14 12 11 11 14 13
36 33 32 33 36 36 33 30 31 31 30 30 30 29 28 28 26 26 26 25 23 22 21 20 18 17 15 15 14 13 12 12
39 37 38 40 37 33 32 32 32 33 33 33 33 32 31 28 30 30 29 28 26 25 23 21 19 18 17 16 19 22 18 11
39 39 37 34 33 33 33 33 35 35 36 38 37 33 33 34 35 35 33 31 29 27 25 22 20 18 16 16 19 21 20 19
40 38 36 35 35 36 36 37 38 41 41 37 36 37 38 40 40 38 36 33 31 29 26 23 19 18 17 15 14 15 17 19
45 41 40 40 40 41 41 44 46 42 40 40 40 43 44 44 43 41 38 36 35 32 26 21 19 17 16 14 14 16 17 19
51 49 47 47 47 47 48 48 48 45 43 43 45 50 50 50 46 43 42 41 37 30 24 21 19 16 14 13 13 13 14 15
54 56 54 53 52 52 52 49 47 46 46 49 54 56 57 53 51 49 48 43 35 28 24 22 18 15 13 12 11 12 11 13

GFSFLT2_prec_cthk_186.txt.gz
RH
35 35 34 33 34 33 32 30 30 30 31 32 33 32 30 28 25 22 19 18 17 17 16 16 16 15 16 17 18 21 23 27
35 35 35 34 34 33 30 27 27 27 27 27 26 24 21 19 16 15 14 13 13 13 13 12 12 12 12 12 12 12 13 15
35 36 36 35 33 31 27 25 24 24 22 21 21 20 19 16 14 14 14 13 13 13 13 13 13 13 13 13 13 13 14 14
34 36 37 36 33 28 24 23 22 21 21 21 21 20 18 16 15 15 15 15 14 14 14 14 14 14 14 14 15 14 14 13
34 36 36 35 31 25 21 19 20 21 20 19 20 20 19 17 16 16 16 16 15 15 15 15 15 16 15 14 14 13 12 12
35 35 35 33 29 24 22 20 18 20 20 20 20 21 20 18 18 18 17 16 16 16 16 16 17 17 16 15 13 13 12 11
37 36 34 32 27 24 23 23 22 20 21 20 20 21 21 20 19 19 18 17 17 17 17 18 18 17 16 14 13 11 10 10
39 36 33 32 27 25 24 24 25 24 22 21 21 21 22 21 21 19 18 18 18 18 18 18 18 18 16 14 12 11 10 10
39 36 33 31 28 26 26 26 26 27 27 24 22 21 22 22 21 20 19 19 19 19 19 19 20 18 16 14 13 12 12 12
39 38 35 32 30 29 28 29 28 28 28 24 23 23 23 23 22 21 20 20 20 20 21 21 20 18 17 15 15 14 13 13
42 40 38 34 32 31 30 31 30 30 30 28 26 24 24 23 23 22 22 21 22 22 22 22 21 20 19 18 17 16 15 15
43 43 41 39 36 34 34 33 31 31 32 30 28 27 25 25 25 24 24 24 24 24 23 23 23 23 21 19 18 17 16 16
44 44 43 40 38 36 34 34 33 34 33 32 29 28 27 27 27 27 27 27 26 26 26 26 26 24 23 21 19 16 16 14
47 46 43 41 39 36 35 36 39 38 34 31 30 30 31 30 31 31 29 28 28 30 31 29 28 25 24 22 19 18 16 14
51 49 46 42 39 39 41 43 40 35 33 33 34 34 34 36 35 31 30 31 33 34 33 32 28 25 23 20 19 18 15 13
51 49 45 42 39 40 41 39 35 34 35 36 36 39 40 39 36 33 32 35 37 36 35 33 29 26 22 19 18 18 19 17
53 48 46 45 41 40 38 37 36 37 37 39 42 43 44 42 38 36 37 40 40 38 36 33 29 25 21 19 17 17 18 17
51 49 49 50 49 43 41 41 40 42 43 45 50 49 48 44 41 40 43 44 43 40 36 34 29 25 21 19 17 16 14 14
52 51 50 51 54 51 48 46 45 46 46 49 50 51 49 47 45 48 50 50 46 40 37 34 29 24 21 18 16 15 14 12
52 51 54 56 59 61 56 52 49 48 45 49 53 52 50 50 54 55 54 49 44 40 38 35 28 23 20 17 14 10 9 12